Year,Month,Day,Hour,Minute,Value (Times are PST for temperature in C)
2014,07,11,00,00,16.10
2014,07,11,00,01,16.10
2014,07,11,00,02,16.10
2014,07,11,00,03,16.10
2014,07,11,00,04,16.10
2014,07,11,00,05,16.10
2014,07,11,00,06,16.10
2014,07,11,00,07,16.10
2014,07,11,00,08,16.10
2014,07,11,00,09,16.00
2014,07,11,00,10,16.00
2014,07,11,00,11,16.00
2014,07,11,00,12,16.00
2014,07,11,00,13,16.00
2014,07,11,00,14,15.90
2014,07,11,00,15,15.90
2014,07,11,00,16,15.90
2014,07,11,00,17,15.90
2014,07,11,00,18,15.90
2014,07,11,00,19,15.90
2014,07,11,00,20,15.90
2014,07,11,00,21,15.90
2014,07,11,00,22,15.90
2014,07,11,00,23,15.90
2014,07,11,00,24,15.80
2014,07,11,00,25,15.80
2014,07,11,00,26,15.80
2014,07,11,00,27,15.80
2014,07,11,00,28,15.80
2014,07,11,00,29,15.80
2014,07,11,00,30,15.80
2014,07,11,00,31,15.80
2014,07,11,00,32,15.80
2014,07,11,00,33,15.80
2014,07,11,00,34,15.80
2014,07,11,00,35,15.70
2014,07,11,00,36,15.70
2014,07,11,00,37,15.70
2014,07,11,00,38,15.70
2014,07,11,00,39,15.70
2014,07,11,00,40,15.70
2014,07,11,00,41,15.70
2014,07,11,00,42,15.70
2014,07,11,00,43,15.60
2014,07,11,00,44,15.60
2014,07,11,00,45,15.60
2014,07,11,00,46,15.60
2014,07,11,00,47,15.50
2014,07,11,00,48,15.50
2014,07,11,00,49,15.40
2014,07,11,00,50,15.40
2014,07,11,00,51,15.40
2014,07,11,00,52,15.40
2014,07,11,00,53,15.30
2014,07,11,00,54,15.30
2014,07,11,00,55,15.30
2014,07,11,00,56,15.30
2014,07,11,00,57,15.30
2014,07,11,00,58,15.30
2014,07,11,00,59,15.30
2014,07,11,01,00,15.30
2014,07,11,01,01,15.30
2014,07,11,01,02,15.30
2014,07,11,01,03,15.20
2014,07,11,01,04,15.20
2014,07,11,01,05,15.20
2014,07,11,01,06,15.20
2014,07,11,01,07,15.20
2014,07,11,01,08,15.20
2014,07,11,01,09,15.20
2014,07,11,01,10,15.20
2014,07,11,01,11,15.20
2014,07,11,01,12,15.20
2014,07,11,01,13,15.10
2014,07,11,01,14,15.10
2014,07,11,01,15,15.10
2014,07,11,01,16,15.10
2014,07,11,01,17,15.10
2014,07,11,01,18,15.10
2014,07,11,01,19,15.10
2014,07,11,01,20,15.10
2014,07,11,01,21,15.10
2014,07,11,01,22,15.00
2014,07,11,01,23,15.00
2014,07,11,01,24,15.00
2014,07,11,01,25,14.90
2014,07,11,01,26,14.90
2014,07,11,01,27,14.90
2014,07,11,01,28,14.90
2014,07,11,01,29,14.90
2014,07,11,01,30,14.90
2014,07,11,01,31,14.90
2014,07,11,01,32,14.80
2014,07,11,01,33,14.80
2014,07,11,01,34,14.80
2014,07,11,01,35,14.80
2014,07,11,01,36,14.80
2014,07,11,01,37,14.80
2014,07,11,01,38,14.70
2014,07,11,01,39,14.70
2014,07,11,01,40,14.70
2014,07,11,01,41,14.70
2014,07,11,01,42,14.70
2014,07,11,01,43,14.60
2014,07,11,01,44,14.60
2014,07,11,01,45,14.60
2014,07,11,01,46,14.60
2014,07,11,01,47,14.60
2014,07,11,01,48,14.50
2014,07,11,01,49,14.50
2014,07,11,01,50,14.50
2014,07,11,01,51,14.50
2014,07,11,01,52,14.40
2014,07,11,01,53,14.40
2014,07,11,01,54,14.40
2014,07,11,01,55,14.40
2014,07,11,01,56,14.40
2014,07,11,01,57,14.30
2014,07,11,01,58,14.30
2014,07,11,01,59,14.30
2014,07,11,02,00,14.30
2014,07,11,02,01,14.30
2014,07,11,02,02,14.30
2014,07,11,02,03,14.30
2014,07,11,02,04,14.20
2014,07,11,02,05,14.20
2014,07,11,02,06,14.20
2014,07,11,02,07,14.20
2014,07,11,02,08,14.20
2014,07,11,02,09,14.20
2014,07,11,02,10,14.20
2014,07,11,02,11,14.20
2014,07,11,02,12,14.10
2014,07,11,02,13,14.10
2014,07,11,02,14,14.10
2014,07,11,02,15,14.10
2014,07,11,02,16,14.10
2014,07,11,02,17,14.10
2014,07,11,02,18,14.00
2014,07,11,02,19,14.00
2014,07,11,02,20,14.00
2014,07,11,02,21,14.00
2014,07,11,02,22,14.00
2014,07,11,02,23,13.90
2014,07,11,02,24,13.90
2014,07,11,02,25,13.90
2014,07,11,02,26,13.90
2014,07,11,02,27,13.90
2014,07,11,02,28,13.90
2014,07,11,02,29,13.90
2014,07,11,02,30,13.80
2014,07,11,02,31,13.80
2014,07,11,02,32,13.80
2014,07,11,02,33,13.80
2014,07,11,02,34,13.80
2014,07,11,02,35,13.90
2014,07,11,02,36,13.90
2014,07,11,02,37,13.90
2014,07,11,02,38,13.90
2014,07,11,02,39,13.90
2014,07,11,02,40,13.90
2014,07,11,02,41,13.90
2014,07,11,02,42,13.90
2014,07,11,02,43,14.00
2014,07,11,02,44,14.00
2014,07,11,02,45,14.00
2014,07,11,02,46,14.00
2014,07,11,02,47,14.00
2014,07,11,02,48,14.00
2014,07,11,02,49,14.00
2014,07,11,02,50,14.00
2014,07,11,02,51,14.00
2014,07,11,02,52,14.00
2014,07,11,02,53,14.00
2014,07,11,02,54,14.00
2014,07,11,02,55,14.00
2014,07,11,02,56,13.90
2014,07,11,02,57,13.90
2014,07,11,02,58,13.90
2014,07,11,02,59,13.90
2014,07,11,03,00,13.90
2014,07,11,03,01,13.90
2014,07,11,03,02,13.90
2014,07,11,03,03,13.90
2014,07,11,03,04,13.90
2014,07,11,03,05,13.90
2014,07,11,03,06,13.90
2014,07,11,03,07,13.90
2014,07,11,03,08,13.90
2014,07,11,03,09,13.90
2014,07,11,03,10,13.90
2014,07,11,03,11,13.90
2014,07,11,03,12,13.90
2014,07,11,03,13,13.90
2014,07,11,03,14,13.90
2014,07,11,03,15,13.80
2014,07,11,03,16,13.80
2014,07,11,03,17,13.80
2014,07,11,03,18,13.80
2014,07,11,03,19,13.80
2014,07,11,03,20,13.80
2014,07,11,03,21,13.80
2014,07,11,03,22,13.80
2014,07,11,03,23,13.70
2014,07,11,03,24,13.70
2014,07,11,03,25,13.70
2014,07,11,03,26,13.60
2014,07,11,03,27,13.60
2014,07,11,03,28,13.60
2014,07,11,03,29,13.60
2014,07,11,03,30,13.60
2014,07,11,03,31,13.60
2014,07,11,03,32,13.60
2014,07,11,03,33,13.60
2014,07,11,03,34,13.60
2014,07,11,03,35,13.60
2014,07,11,03,36,13.60
2014,07,11,03,37,13.60
2014,07,11,03,38,13.60
2014,07,11,03,39,13.60
2014,07,11,03,40,13.60
2014,07,11,03,41,13.60
2014,07,11,03,42,13.50
2014,07,11,03,43,13.50
2014,07,11,03,44,13.50
2014,07,11,03,45,13.50
2014,07,11,03,46,13.50
2014,07,11,03,47,13.50
2014,07,11,03,48,13.40
2014,07,11,03,49,13.40
2014,07,11,03,50,13.40
2014,07,11,03,51,13.40
2014,07,11,03,52,13.40
2014,07,11,03,53,13.40
2014,07,11,03,54,13.30
2014,07,11,03,55,13.30
2014,07,11,03,56,13.30
2014,07,11,03,57,13.30
2014,07,11,03,58,13.30
2014,07,11,03,59,13.30
2014,07,11,04,00,13.30
2014,07,11,04,01,13.30
2014,07,11,04,02,13.30
2014,07,11,04,03,13.20
2014,07,11,04,04,13.20
2014,07,11,04,05,13.20
2014,07,11,04,06,13.20
2014,07,11,04,07,13.20
2014,07,11,04,08,13.10
2014,07,11,04,09,13.10
2014,07,11,04,10,13.10
2014,07,11,04,11,13.10
2014,07,11,04,12,13.10
2014,07,11,04,13,13.10
2014,07,11,04,14,13.00
2014,07,11,04,15,13.00
2014,07,11,04,16,13.00
2014,07,11,04,17,13.00
2014,07,11,04,18,13.00
2014,07,11,04,19,13.00
2014,07,11,04,20,13.00
2014,07,11,04,21,13.00
2014,07,11,04,22,13.00
2014,07,11,04,23,13.00
2014,07,11,04,24,13.00
2014,07,11,04,25,13.00
2014,07,11,04,26,13.10
2014,07,11,04,27,13.10
2014,07,11,04,28,13.10
2014,07,11,04,29,13.10
2014,07,11,04,30,13.10
2014,07,11,04,31,13.00
2014,07,11,04,32,13.00
2014,07,11,04,33,13.00
2014,07,11,04,34,13.00
2014,07,11,04,35,13.00
2014,07,11,04,36,13.00
2014,07,11,04,37,13.00
2014,07,11,04,38,13.00
2014,07,11,04,39,13.00
2014,07,11,04,40,13.00
2014,07,11,04,41,13.00
2014,07,11,04,42,12.90
2014,07,11,04,43,12.90
2014,07,11,04,44,12.90
2014,07,11,04,45,12.90
2014,07,11,04,46,12.90
2014,07,11,04,47,12.90
2014,07,11,04,48,12.90
2014,07,11,04,49,12.90
2014,07,11,04,50,12.90
2014,07,11,04,51,12.90
2014,07,11,04,52,12.90
2014,07,11,04,53,12.90
2014,07,11,04,54,12.90
2014,07,11,04,55,12.80
2014,07,11,04,56,12.80
2014,07,11,04,57,12.80
2014,07,11,04,58,12.80
2014,07,11,04,59,12.80
2014,07,11,05,00,12.80
2014,07,11,05,01,12.80
2014,07,11,05,02,12.80
2014,07,11,05,03,12.80
2014,07,11,05,04,12.80
2014,07,11,05,05,12.80
2014,07,11,05,06,12.80
2014,07,11,05,07,12.70
2014,07,11,05,08,12.70
2014,07,11,05,09,12.70
2014,07,11,05,10,12.70
2014,07,11,05,11,12.60
2014,07,11,05,12,12.60
2014,07,11,05,13,12.60
2014,07,11,05,14,12.60
2014,07,11,05,15,12.50
2014,07,11,05,16,12.50
2014,07,11,05,17,12.50
2014,07,11,05,18,12.40
2014,07,11,05,19,12.40
2014,07,11,05,20,12.40
2014,07,11,05,21,12.40
2014,07,11,05,22,12.30
2014,07,11,05,23,12.30
2014,07,11,05,24,12.30
2014,07,11,05,25,12.30
2014,07,11,05,26,12.30
2014,07,11,05,27,12.30
2014,07,11,05,28,12.30
2014,07,11,05,29,12.30
2014,07,11,05,30,12.30
2014,07,11,05,31,12.30
2014,07,11,05,32,12.20
2014,07,11,05,33,12.20
2014,07,11,05,34,12.20
2014,07,11,05,35,12.20
2014,07,11,05,36,12.20
2014,07,11,05,37,12.20
2014,07,11,05,38,12.20
2014,07,11,05,39,12.20
2014,07,11,05,40,12.10
2014,07,11,05,41,12.10
2014,07,11,05,42,12.10
2014,07,11,05,43,12.10
2014,07,11,05,44,12.10
2014,07,11,05,45,12.10
2014,07,11,05,46,12.10
2014,07,11,05,47,12.10
2014,07,11,05,48,12.10
2014,07,11,05,49,12.10
2014,07,11,05,50,12.10
2014,07,11,05,51,12.10
2014,07,11,05,52,12.00
2014,07,11,05,53,12.00
2014,07,11,05,54,12.10
2014,07,11,05,55,12.10
2014,07,11,05,56,12.10
2014,07,11,05,57,12.10
2014,07,11,05,58,12.10
2014,07,11,05,59,12.10
2014,07,11,06,00,12.10
2014,07,11,06,01,12.10
2014,07,11,06,02,12.10
2014,07,11,06,03,12.10
2014,07,11,06,04,12.10
2014,07,11,06,05,12.10
2014,07,11,06,06,12.10
2014,07,11,06,07,12.10
2014,07,11,06,08,12.20
2014,07,11,06,09,12.20
2014,07,11,06,10,12.20
2014,07,11,06,11,12.20
2014,07,11,06,12,12.20
2014,07,11,06,13,12.20
2014,07,11,06,14,12.20
2014,07,11,06,15,12.20
2014,07,11,06,16,12.20
2014,07,11,06,17,12.20
2014,07,11,06,18,12.20
2014,07,11,06,19,12.20
2014,07,11,06,20,12.20
2014,07,11,06,21,12.20
2014,07,11,06,22,12.20
2014,07,11,06,23,12.20
2014,07,11,06,24,12.20
2014,07,11,06,25,12.20
2014,07,11,06,26,12.20
2014,07,11,06,27,12.20
2014,07,11,06,28,12.30
2014,07,11,06,29,12.30
2014,07,11,06,30,12.30
2014,07,11,06,31,12.30
2014,07,11,06,32,12.30
2014,07,11,06,33,12.40
2014,07,11,06,34,12.40
2014,07,11,06,35,12.40
2014,07,11,06,36,12.40
2014,07,11,06,37,12.40
2014,07,11,06,38,12.50
2014,07,11,06,39,12.50
2014,07,11,06,40,12.50
2014,07,11,06,41,12.60
2014,07,11,06,42,12.60
2014,07,11,06,43,12.70
2014,07,11,06,44,12.70
2014,07,11,06,45,12.70
2014,07,11,06,46,12.70
2014,07,11,06,47,12.80
2014,07,11,06,48,12.80
2014,07,11,06,49,12.80
2014,07,11,06,50,12.90
2014,07,11,06,51,12.90
2014,07,11,06,52,13.00
2014,07,11,06,53,13.10
2014,07,11,06,54,13.10
2014,07,11,06,55,13.10
2014,07,11,06,56,13.20
2014,07,11,06,57,13.20
2014,07,11,06,58,13.30
2014,07,11,06,59,13.40
2014,07,11,07,00,13.40
2014,07,11,07,01,13.50
2014,07,11,07,02,13.50
2014,07,11,07,03,13.60
2014,07,11,07,04,13.70
2014,07,11,07,05,13.70
2014,07,11,07,06,13.80
2014,07,11,07,07,13.80
2014,07,11,07,08,13.90
2014,07,11,07,09,14.00
2014,07,11,07,10,14.10
2014,07,11,07,11,14.10
2014,07,11,07,12,14.20
2014,07,11,07,13,14.30
2014,07,11,07,14,14.40
2014,07,11,07,15,14.50
2014,07,11,07,16,14.70
2014,07,11,07,17,14.80
2014,07,11,07,18,15.00
2014,07,11,07,19,15.20
2014,07,11,07,20,15.30
2014,07,11,07,21,15.50
2014,07,11,07,22,15.60
2014,07,11,07,23,15.70
2014,07,11,07,24,15.90
2014,07,11,07,25,16.00
2014,07,11,07,26,16.10
2014,07,11,07,27,16.20
2014,07,11,07,28,16.30
2014,07,11,07,29,16.40
2014,07,11,07,30,16.50
2014,07,11,07,31,16.60
2014,07,11,07,32,16.70
2014,07,11,07,33,16.80
2014,07,11,07,34,16.90
2014,07,11,07,35,17.10
2014,07,11,07,36,17.20
2014,07,11,07,37,17.30
2014,07,11,07,38,17.40
2014,07,11,07,39,17.50
2014,07,11,07,40,17.60
2014,07,11,07,41,17.70
2014,07,11,07,42,17.80
2014,07,11,07,43,17.90
2014,07,11,07,44,17.90
2014,07,11,07,45,18.00
2014,07,11,07,46,18.10
2014,07,11,07,47,18.10
2014,07,11,07,48,18.20
2014,07,11,07,49,18.30
2014,07,11,07,50,18.40
2014,07,11,07,51,18.40
2014,07,11,07,52,18.50
2014,07,11,07,53,18.60
2014,07,11,07,54,18.60
2014,07,11,07,55,18.70
2014,07,11,07,56,18.80
2014,07,11,07,57,18.90
2014,07,11,07,58,19.00
2014,07,11,07,59,19.10
2014,07,11,08,00,19.20
2014,07,11,08,01,19.30
2014,07,11,08,02,19.30
2014,07,11,08,03,19.40
2014,07,11,08,04,19.50
2014,07,11,08,05,19.60
2014,07,11,08,06,19.60
2014,07,11,08,07,19.70
2014,07,11,08,08,19.80
2014,07,11,08,09,19.80
2014,07,11,08,10,19.90
2014,07,11,08,11,19.90
2014,07,11,08,12,20.00
2014,07,11,08,13,20.10
2014,07,11,08,14,20.10
2014,07,11,08,15,20.10
2014,07,11,08,16,20.20
2014,07,11,08,17,20.20
2014,07,11,08,18,20.30
2014,07,11,08,19,20.30
2014,07,11,08,20,20.40
2014,07,11,08,21,20.40
2014,07,11,08,22,20.50
2014,07,11,08,23,20.50
2014,07,11,08,24,20.50
2014,07,11,08,25,20.60
2014,07,11,08,26,20.60
2014,07,11,08,27,20.60
2014,07,11,08,28,20.70
2014,07,11,08,29,20.70
2014,07,11,08,30,20.70
2014,07,11,08,31,20.80
2014,07,11,08,32,20.90
2014,07,11,08,33,21.00
2014,07,11,08,34,21.10
2014,07,11,08,35,21.20
2014,07,11,08,36,21.20
2014,07,11,08,37,21.30
2014,07,11,08,38,21.40
2014,07,11,08,39,21.50
2014,07,11,08,40,21.50
2014,07,11,08,41,21.60
2014,07,11,08,42,21.60
2014,07,11,08,43,21.60
2014,07,11,08,44,21.70
2014,07,11,08,45,21.70
2014,07,11,08,46,21.70
2014,07,11,08,47,21.70
2014,07,11,08,48,21.80
2014,07,11,08,49,21.80
2014,07,11,08,50,21.80
2014,07,11,08,51,21.70
2014,07,11,08,52,21.70
2014,07,11,08,53,21.70
2014,07,11,08,54,21.80
2014,07,11,08,55,21.80
2014,07,11,08,56,21.80
2014,07,11,08,57,21.90
2014,07,11,08,58,21.90
2014,07,11,08,59,21.90
2014,07,11,09,00,21.90
2014,07,11,09,01,21.90
2014,07,11,09,02,21.90
2014,07,11,09,03,22.00
2014,07,11,09,04,22.10
2014,07,11,09,05,22.10
2014,07,11,09,06,22.10
2014,07,11,09,07,22.10
2014,07,11,09,08,22.10
2014,07,11,09,09,22.10
2014,07,11,09,10,22.10
2014,07,11,09,11,22.10
2014,07,11,09,12,22.10
2014,07,11,09,13,22.20
2014,07,11,09,14,22.20
2014,07,11,09,15,22.20
2014,07,11,09,16,22.30
2014,07,11,09,17,22.30
2014,07,11,09,18,22.30
2014,07,11,09,19,22.30
2014,07,11,09,20,22.30
2014,07,11,09,21,22.40
2014,07,11,09,22,22.40
2014,07,11,09,23,22.40
2014,07,11,09,24,22.40
2014,07,11,09,25,22.40
2014,07,11,09,26,22.40
2014,07,11,09,27,22.40
2014,07,11,09,28,22.40
2014,07,11,09,29,22.50
2014,07,11,09,30,22.60
2014,07,11,09,31,22.60
2014,07,11,09,32,22.60
2014,07,11,09,33,22.60
2014,07,11,09,34,22.70
2014,07,11,09,35,22.80
2014,07,11,09,36,22.80
2014,07,11,09,37,22.80
2014,07,11,09,38,22.80
2014,07,11,09,39,22.80
2014,07,11,09,40,22.80
2014,07,11,09,41,22.90
2014,07,11,09,42,22.90
2014,07,11,09,43,23.00
2014,07,11,09,44,23.10
2014,07,11,09,45,23.10
2014,07,11,09,46,23.20
2014,07,11,09,47,23.20
2014,07,11,09,48,23.30
2014,07,11,09,49,23.30
2014,07,11,09,50,23.30
2014,07,11,09,51,23.30
2014,07,11,09,52,23.40
2014,07,11,09,53,23.40
2014,07,11,09,54,23.50
2014,07,11,09,55,23.50
2014,07,11,09,56,23.60
2014,07,11,09,57,23.60
2014,07,11,09,58,23.60
2014,07,11,09,59,23.60
2014,07,11,10,00,23.70
2014,07,11,10,01,23.80
2014,07,11,10,02,23.90
2014,07,11,10,03,23.90
2014,07,11,10,04,24.00
2014,07,11,10,05,24.00
2014,07,11,10,06,24.00
2014,07,11,10,07,24.00
2014,07,11,10,08,23.90
2014,07,11,10,09,23.80
2014,07,11,10,10,23.70
2014,07,11,10,11,23.70
2014,07,11,10,12,23.70
2014,07,11,10,13,23.70
2014,07,11,10,14,23.60
2014,07,11,10,15,23.60
2014,07,11,10,16,23.60
2014,07,11,10,17,23.60
2014,07,11,10,18,23.60
2014,07,11,10,19,23.60
2014,07,11,10,20,23.60
2014,07,11,10,21,23.70
2014,07,11,10,22,23.70
2014,07,11,10,23,23.70
2014,07,11,10,24,23.80
2014,07,11,10,25,23.80
2014,07,11,10,26,23.80
2014,07,11,10,27,23.80
2014,07,11,10,28,23.80
2014,07,11,10,29,23.90
2014,07,11,10,30,23.90
2014,07,11,10,31,23.90
2014,07,11,10,32,23.90
2014,07,11,10,33,24.00
2014,07,11,10,34,24.00
2014,07,11,10,35,24.10
2014,07,11,10,36,24.10
2014,07,11,10,37,24.20
2014,07,11,10,38,24.30
2014,07,11,10,39,24.30
2014,07,11,10,40,24.30
2014,07,11,10,41,24.30
2014,07,11,10,42,24.30
2014,07,11,10,43,24.20
2014,07,11,10,44,24.20
2014,07,11,10,45,24.20
2014,07,11,10,46,24.10
2014,07,11,10,47,24.10
2014,07,11,10,48,24.10
2014,07,11,10,49,24.10
2014,07,11,10,50,24.20
2014,07,11,10,51,24.20
2014,07,11,10,52,24.30
2014,07,11,10,53,24.30
2014,07,11,10,54,24.30
2014,07,11,10,55,24.30
2014,07,11,10,56,24.30
2014,07,11,10,57,24.20
2014,07,11,10,58,24.00
2014,07,11,10,59,24.00
2014,07,11,11,00,23.90
2014,07,11,11,01,23.90
2014,07,11,11,02,23.90
2014,07,11,11,03,23.80
2014,07,11,11,04,23.80
2014,07,11,11,05,23.90
2014,07,11,11,06,23.80
2014,07,11,11,07,23.80
2014,07,11,11,08,23.80
2014,07,11,11,09,23.80
2014,07,11,11,10,23.80
2014,07,11,11,11,23.90
2014,07,11,11,12,24.00
2014,07,11,11,13,24.10
2014,07,11,11,14,24.20
2014,07,11,11,15,24.20
2014,07,11,11,16,24.30
2014,07,11,11,17,24.30
2014,07,11,11,18,24.30
2014,07,11,11,19,24.30
2014,07,11,11,20,24.30
2014,07,11,11,21,24.40
2014,07,11,11,22,24.40
2014,07,11,11,23,24.40
2014,07,11,11,24,24.50
2014,07,11,11,25,24.50
2014,07,11,11,26,24.60
2014,07,11,11,27,24.60
2014,07,11,11,28,24.60
2014,07,11,11,29,24.60
2014,07,11,11,30,24.60
2014,07,11,11,31,24.60
2014,07,11,11,32,24.50
2014,07,11,11,33,24.50
2014,07,11,11,34,24.40
2014,07,11,11,35,24.40
2014,07,11,11,36,24.40
2014,07,11,11,37,24.50
2014,07,11,11,38,24.50
2014,07,11,11,39,24.60
2014,07,11,11,40,24.60
2014,07,11,11,41,24.60
2014,07,11,11,42,24.60
2014,07,11,11,43,24.50
2014,07,11,11,44,24.50
2014,07,11,11,45,24.50
2014,07,11,11,46,24.50
2014,07,11,11,47,24.50
2014,07,11,11,48,24.60
2014,07,11,11,49,24.70
2014,07,11,11,50,24.80
2014,07,11,11,51,24.80
2014,07,11,11,52,24.80
2014,07,11,11,53,24.70
2014,07,11,11,54,24.60
2014,07,11,11,55,24.60
2014,07,11,11,56,24.60
2014,07,11,11,57,24.60
2014,07,11,11,58,24.60
2014,07,11,11,59,24.60
2014,07,11,12,00,24.60
2014,07,11,12,01,24.70
2014,07,11,12,02,24.70
2014,07,11,12,03,24.80
2014,07,11,12,04,24.80
2014,07,11,12,05,24.80
2014,07,11,12,06,24.90
2014,07,11,12,07,25.00
2014,07,11,12,08,25.10
2014,07,11,12,09,25.20
2014,07,11,12,10,25.30
2014,07,11,12,11,25.30
2014,07,11,12,12,25.30
2014,07,11,12,13,25.50
2014,07,11,12,14,25.60
2014,07,11,12,15,25.70
2014,07,11,12,16,25.80
2014,07,11,12,17,25.80
2014,07,11,12,18,25.70
2014,07,11,12,19,25.60
2014,07,11,12,20,25.50
2014,07,11,12,21,25.40
2014,07,11,12,22,25.40
2014,07,11,12,23,25.50
2014,07,11,12,24,25.50
2014,07,11,12,25,25.50
2014,07,11,12,26,25.40
2014,07,11,12,27,25.40
2014,07,11,12,28,25.40
2014,07,11,12,29,25.30
2014,07,11,12,30,25.20
2014,07,11,12,31,25.10
2014,07,11,12,32,25.00
2014,07,11,12,33,24.90
2014,07,11,12,34,24.90
2014,07,11,12,35,25.00
2014,07,11,12,36,25.10
2014,07,11,12,37,25.20
2014,07,11,12,38,25.20
2014,07,11,12,39,25.20
2014,07,11,12,40,25.30
2014,07,11,12,41,25.30
2014,07,11,12,42,25.50
2014,07,11,12,43,25.60
2014,07,11,12,44,25.70
2014,07,11,12,45,25.70
2014,07,11,12,46,25.80
2014,07,11,12,47,25.80
2014,07,11,12,48,25.70
2014,07,11,12,49,25.70
2014,07,11,12,50,25.70
2014,07,11,12,51,25.60
2014,07,11,12,52,25.60
2014,07,11,12,53,25.60
2014,07,11,12,54,25.70
2014,07,11,12,55,25.70
2014,07,11,12,56,25.80
2014,07,11,12,57,25.90
2014,07,11,12,58,25.90
2014,07,11,12,59,26.00
2014,07,11,13,00,26.00
2014,07,11,13,01,26.00
2014,07,11,13,02,25.90
2014,07,11,13,03,25.90
2014,07,11,13,04,25.90
2014,07,11,13,05,25.90
2014,07,11,13,06,25.90
2014,07,11,13,07,25.90
2014,07,11,13,08,25.80
2014,07,11,13,09,25.70
2014,07,11,13,10,25.70
2014,07,11,13,11,25.70
2014,07,11,13,12,25.70
2014,07,11,13,13,25.70
2014,07,11,13,14,25.80
2014,07,11,13,15,25.80
2014,07,11,13,16,25.80
2014,07,11,13,17,25.80
2014,07,11,13,18,25.80
2014,07,11,13,19,25.80
2014,07,11,13,20,25.80
2014,07,11,13,21,25.80
2014,07,11,13,22,25.80
2014,07,11,13,23,25.80
2014,07,11,13,24,25.80
2014,07,11,13,25,25.90
2014,07,11,13,26,26.00
2014,07,11,13,27,26.10
2014,07,11,13,28,26.10
2014,07,11,13,29,26.20
2014,07,11,13,30,26.20
2014,07,11,13,31,26.20
2014,07,11,13,32,26.20
2014,07,11,13,33,26.30
2014,07,11,13,34,26.30
2014,07,11,13,35,26.30
2014,07,11,13,36,26.40
2014,07,11,13,37,26.40
2014,07,11,13,38,26.40
2014,07,11,13,39,26.40
2014,07,11,13,40,26.40
2014,07,11,13,41,26.40
2014,07,11,13,42,26.40
2014,07,11,13,43,26.40
2014,07,11,13,44,26.40
2014,07,11,13,45,26.50
2014,07,11,13,46,26.50
2014,07,11,13,47,26.50
2014,07,11,13,48,26.60
2014,07,11,13,49,26.60
2014,07,11,13,50,26.60
2014,07,11,13,51,26.60
2014,07,11,13,52,26.60
2014,07,11,13,53,26.60
2014,07,11,13,54,26.60
2014,07,11,13,55,26.60
2014,07,11,13,56,26.70
2014,07,11,13,57,26.80
2014,07,11,13,58,26.80
2014,07,11,13,59,26.90
2014,07,11,14,00,26.90
2014,07,11,14,01,27.00
2014,07,11,14,02,27.00
2014,07,11,14,03,27.00
2014,07,11,14,04,26.90
2014,07,11,14,05,27.00
2014,07,11,14,06,27.00
2014,07,11,14,07,27.10
2014,07,11,14,08,27.20
2014,07,11,14,09,27.20
2014,07,11,14,10,27.30
2014,07,11,14,11,27.30
2014,07,11,14,12,27.30
2014,07,11,14,13,27.30
2014,07,11,14,14,27.20
2014,07,11,14,15,27.10
2014,07,11,14,16,27.00
2014,07,11,14,17,27.00
2014,07,11,14,18,27.10
2014,07,11,14,19,27.20
2014,07,11,14,20,27.40
2014,07,11,14,21,27.40
2014,07,11,14,22,27.50
2014,07,11,14,23,27.50
2014,07,11,14,24,27.40
2014,07,11,14,25,27.40
2014,07,11,14,26,27.40
2014,07,11,14,27,27.40
2014,07,11,14,28,27.50
2014,07,11,14,29,27.50
2014,07,11,14,30,27.50
2014,07,11,14,31,27.60
2014,07,11,14,32,27.70
2014,07,11,14,33,27.80
2014,07,11,14,34,27.80
2014,07,11,14,35,27.70
2014,07,11,14,36,27.70
2014,07,11,14,37,27.80
2014,07,11,14,38,27.80
2014,07,11,14,39,27.80
2014,07,11,14,40,27.70
2014,07,11,14,41,27.70
2014,07,11,14,42,27.70
2014,07,11,14,43,27.70
2014,07,11,14,44,27.70
2014,07,11,14,45,27.60
2014,07,11,14,46,27.50
2014,07,11,14,47,27.40
2014,07,11,14,48,27.30
2014,07,11,14,49,27.30
2014,07,11,14,50,27.20
2014,07,11,14,51,27.20
2014,07,11,14,52,27.20
2014,07,11,14,53,27.20
2014,07,11,14,54,27.20
2014,07,11,14,55,27.10
2014,07,11,14,56,27.00
2014,07,11,14,57,27.00
2014,07,11,14,58,27.00
2014,07,11,14,59,26.90
2014,07,11,15,00,26.90
2014,07,11,15,01,26.80
2014,07,11,15,02,26.80
2014,07,11,15,03,26.80
2014,07,11,15,04,26.80
2014,07,11,15,05,26.80
2014,07,11,15,06,26.90
2014,07,11,15,07,26.90
2014,07,11,15,08,26.90
2014,07,11,15,09,26.80
2014,07,11,15,10,26.80
2014,07,11,15,11,26.80
2014,07,11,15,12,26.80
2014,07,11,15,13,26.80
2014,07,11,15,14,26.90
2014,07,11,15,15,27.00
2014,07,11,15,16,27.10
2014,07,11,15,17,27.30
2014,07,11,15,18,27.30
2014,07,11,15,19,27.40
2014,07,11,15,20,27.40
2014,07,11,15,21,27.40
2014,07,11,15,22,27.40
2014,07,11,15,23,27.40
2014,07,11,15,24,27.40
2014,07,11,15,25,27.40
2014,07,11,15,26,27.30
2014,07,11,15,27,27.30
2014,07,11,15,28,27.20
2014,07,11,15,29,27.10
2014,07,11,15,30,27.10
2014,07,11,15,31,27.10
2014,07,11,15,32,27.00
2014,07,11,15,33,27.00
2014,07,11,15,34,27.00
2014,07,11,15,35,27.00
2014,07,11,15,36,27.00
2014,07,11,15,37,27.00
2014,07,11,15,38,27.00
2014,07,11,15,39,27.00
2014,07,11,15,40,27.00
2014,07,11,15,41,26.90
2014,07,11,15,42,27.00
2014,07,11,15,43,26.90
2014,07,11,15,44,26.90
2014,07,11,15,45,26.90
2014,07,11,15,46,26.90
2014,07,11,15,47,26.90
2014,07,11,15,48,26.90
2014,07,11,15,49,27.00
2014,07,11,15,50,27.00
2014,07,11,15,51,27.00
2014,07,11,15,52,27.00
2014,07,11,15,53,27.00
2014,07,11,15,54,27.00
2014,07,11,15,55,27.10
2014,07,11,15,56,27.20
2014,07,11,15,57,27.20
2014,07,11,15,58,27.10
2014,07,11,15,59,27.10
2014,07,11,16,00,27.10
2014,07,11,16,01,27.10
2014,07,11,16,02,27.10
2014,07,11,16,03,27.10
2014,07,11,16,04,27.00
2014,07,11,16,05,27.00
2014,07,11,16,06,27.00
2014,07,11,16,07,27.00
2014,07,11,16,08,27.10
2014,07,11,16,09,27.10
2014,07,11,16,10,27.20
2014,07,11,16,11,27.20
2014,07,11,16,12,27.30
2014,07,11,16,13,27.30
2014,07,11,16,14,27.30
2014,07,11,16,15,27.30
2014,07,11,16,16,27.30
2014,07,11,16,17,27.30
2014,07,11,16,18,27.20
2014,07,11,16,19,27.20
2014,07,11,16,20,27.20
2014,07,11,16,21,27.20
2014,07,11,16,22,27.20
2014,07,11,16,23,27.20
2014,07,11,16,24,27.20
2014,07,11,16,25,27.30
2014,07,11,16,26,27.30
2014,07,11,16,27,27.40
2014,07,11,16,28,27.40
2014,07,11,16,29,27.50
2014,07,11,16,30,27.50
2014,07,11,16,31,27.60
2014,07,11,16,32,27.70
2014,07,11,16,33,27.70
2014,07,11,16,34,27.80
2014,07,11,16,35,27.80
2014,07,11,16,36,27.80
2014,07,11,16,37,27.90
2014,07,11,16,38,27.90
2014,07,11,16,39,27.90
2014,07,11,16,40,27.90
2014,07,11,16,41,27.90
2014,07,11,16,42,27.90
2014,07,11,16,43,27.90
2014,07,11,16,44,27.90
2014,07,11,16,45,27.90
2014,07,11,16,46,27.90
2014,07,11,16,47,27.90
2014,07,11,16,48,28.00
2014,07,11,16,49,28.00
2014,07,11,16,50,27.90
2014,07,11,16,51,27.90
2014,07,11,16,52,27.90
2014,07,11,16,53,27.90
2014,07,11,16,54,27.90
2014,07,11,16,55,27.80
2014,07,11,16,56,27.90
2014,07,11,16,57,27.90
2014,07,11,16,58,27.90
2014,07,11,16,59,28.00
2014,07,11,17,00,28.10
2014,07,11,17,01,28.10
2014,07,11,17,02,28.10
2014,07,11,17,03,28.00
2014,07,11,17,04,28.00
2014,07,11,17,05,28.00
2014,07,11,17,06,28.00
2014,07,11,17,07,28.00
2014,07,11,17,08,28.00
2014,07,11,17,09,28.00
2014,07,11,17,10,28.00
2014,07,11,17,11,28.00
2014,07,11,17,12,28.00
2014,07,11,17,13,28.10
2014,07,11,17,14,28.10
2014,07,11,17,15,28.20
2014,07,11,17,16,28.30
2014,07,11,17,17,28.30
2014,07,11,17,18,28.40
2014,07,11,17,19,28.50